Baudette, MN

7:28 PM CDT on April 25, 2018 (GMT -0500)
Baudette International

Weather History for KBDE - January, 2014

Change the Weather History Date:

Thursday, January 23, 2014

  Actual Average Record
Temperature  
Mean Temperature -2 °F -  
Max Temperature 19 °F 18 °F 50 °F (1942)
Min Temperature -24 °F -5 °F -46 °F (1935)
Degree Days  
Heating Degree Days 68    
Moisture  
Dew Point -13 °F    
Average Humidity 49    
Maximum Humidity 77    
Minimum Humidity 26    
Precipitation  
Precipitation 0.01 in - - ()
Sea Level Pressure  
Sea Level Pressure 30.27 in    
Wind  
Wind Speed 9 mph (SW)    
Max Wind Speed 28 mph    
Max Gust Speed 40 mph    
Visibility 7 miles    
Events Snow    
Averages and records for this station are not official NWS values.
T = Trace of Precipitation, MM = Missing Value Source: NWS Daily Summary

Daily Weather History Graph

Daily Weather History Graph

Search for Another Location

Airport or City:

Astronomy

Jan. 23, 2014 Rise Set
Actual Time 7:58 AM CST 5:02 PM CST
Civil Twilight 7:24 AM CST 5:37 PM CST
Nautical Twilight 6:45 AM CST 6:15 PM CST
Astronomical Twilight 6:08 AM CST 6:52 PM CST
Moon 12:11 AM CST (1/23) 10:55 AM CST (1/23)
Length of Visible Light 10h 12m
Length of Day
9h 03m
Waning Gibbous, 55% of the Moon is Illuminated
Jan 23
Waning Gibbous
Jan 23
Last Quarter
Jan 30
New
Feb 6
First Quarter
Feb 14
Full

Hourly Weather History & Observations

Time (CST) Temp. Windchill Dew Point Humidity Pressure Visibility Wind Dir Wind Speed Gust Speed Precip Events Conditions
12:53 AM -22.0 °F -37.7 °F -27.0 °F 77% 30.69 in 10.0 mi NW 5.8 mph - N/A   Clear
1:51 AM -20.2 °F -30.9 °F -27.4 °F 69% 30.57 in 10.0 mi NW 3.5 mph - N/A   Mostly Cloudy
1:53 AM -20.9 °F -31.7 °F -27.0 °F 73% 30.70 in 10.0 mi NW 3.5 mph - N/A   Mostly Cloudy
2:06 AM -22.0 °F -35.6 °F -27.9 °F 74% 30.56 in 10.0 mi NW 4.6 mph - N/A   Scattered Clouds
2:53 AM -18.9 °F -29.5 °F -26.0 °F 70% 30.72 in 10.0 mi WNW 3.5 mph - N/A   Partly Cloudy
3:07 AM -16.1 °F -26.2 °F -26.0 °F 61% 30.59 in 10.0 mi WNW 3.5 mph - N/A   Mostly Cloudy
3:53 AM -11.0 °F -24.6 °F -26.0 °F 48% 30.71 in 10.0 mi WNW 5.8 mph - N/A   Overcast
4:53 AM -13.0 °F -25.1 °F -27.0 °F 50% 30.71 in 10.0 mi WNW 4.6 mph - N/A   Scattered Clouds
5:53 AM -15.0 °F -29.3 °F -29.0 °F 49% 30.73 in 10.0 mi WNW 5.8 mph - N/A   Clear
6:53 AM -23.1 °F - -32.1 °F 63% 30.74 in 10.0 mi Calm Calm - N/A   Clear
7:53 AM -24.0 °F -35.2 °F -34.1 °F 59% 30.74 in 6.0 mi SSW 3.5 mph - N/A   Haze
8:53 AM -8.0 °F -16.9 °F -32.1 °F 30% 30.71 in 10.0 mi WSW 3.5 mph - N/A   Clear
9:23 AM -7.1 °F -18.1 °F -29.9 °F 32% 30.56 in 10.0 mi SSW 4.6 mph - N/A   Scattered Clouds
9:32 AM -2.9 °F -13.3 °F -29.0 °F 28% 30.56 in 10.0 mi SSW 4.6 mph - N/A   Mostly Cloudy
9:53 AM -4.0 °F -12.4 °F -26.0 °F 34% 30.69 in 7.0 mi SSW 3.5 mph - N/A   Overcast
10:25 AM 3.0 °F -8.0 °F -25.1 °F 26% 30.56 in 10.0 mi SSW 5.8 mph - N/A   Overcast
10:53 AM 3.0 °F -6.4 °F -23.1 °F 29% 30.66 in 10.0 mi South 4.6 mph - N/A   Overcast
11:11 AM 6.1 °F -5.6 °F -20.9 °F 28% 30.53 in 10.0 mi South 6.9 mph - N/A   Scattered Clouds
11:53 AM 12.0 °F 4.1 °F -17.0 °F 26% 30.62 in 10.0 mi South 4.6 mph - N/A   Clear
12:53 PM 15.1 °F 4.2 °F -13.0 °F 28% 30.56 in 10.0 mi SW 8.1 mph - N/A   Clear
1:53 PM 14.0 °F -1.4 °F -11.0 °F 32% 30.51 in 10.0 mi SW 15.0 mph 20.7 mph N/A   Clear
2:53 PM 12.0 °F -2.0 °F -11.0 °F 35% 30.46 in 10.0 mi SSW 11.5 mph - N/A   Clear
3:53 PM 10.9 °F -4.7 °F -11.0 °F 37% 30.38 in 10.0 mi SSW 13.8 mph - N/A   Clear
4:53 PM 7.0 °F -11.0 °F -11.9 °F 42% 30.31 in 10.0 mi South 16.1 mph - N/A   Clear
5:53 PM 6.1 °F -12.8 °F -11.9 °F 44% 30.23 in 10.0 mi South 17.3 mph - N/A   Clear
6:53 PM 7.0 °F -13.6 °F -11.0 °F 44% 30.14 in 10.0 mi South 21.9 mph - N/A   Overcast
7:53 PM 10.9 °F -5.9 °F -9.0 °F 40% 30.06 in 10.0 mi SSW 16.1 mph 26.5 mph N/A   Overcast
8:53 PM 12.9 °F -5.7 °F -4.0 °F 47% 29.96 in 9.0 mi SSW 21.9 mph 32.2 mph N/A   Overcast
9:31 PM 12.9 °F -7.6 °F -0.9 °F 54% 29.80 in 1.8 mi SSW 27.6 mph 40.3 mph 0.00 in Snow Light Snow
9:41 PM 14.0 °F -5.8 °F -0.0 °F 54% 29.78 in 1.2 mi SSW 26.5 mph 38.0 mph 0.00 in Snow Light Snow
9:50 PM 14.0 °F -5.8 °F 1.4 °F 57% 29.77 in 1.2 mi SSW 26.5 mph 35.7 mph 0.00 in Snow Light Snow
9:53 PM 14.0 °F -5.5 °F 1.0 °F 56% 29.86 in 1.0 mi SW 25.3 mph 35.7 mph 0.00 in Snow Light Snow
10:16 PM 14.0 °F -6.2 °F 1.9 °F 59% 29.74 in 0.8 mi SW 27.6 mph 35.7 mph 0.00 in Snow Light Snow
10:28 PM 15.1 °F -4.0 °F 3.0 °F 59% 29.73 in 1.0 mi SW 25.3 mph 35.7 mph 0.00 in Snow Light Snow
10:38 PM 15.1 °F -2.9 °F 3.0 °F 59% 29.72 in 1.2 mi SW 21.9 mph 33.4 mph 0.00 in Snow Light Snow
10:45 PM 16.0 °F -2.1 °F 3.0 °F 57% 29.73 in 1.0 mi SW 23.0 mph 29.9 mph 0.00 in Snow Light Snow
10:53 PM 16.0 °F -0.4 °F 3.9 °F 59% 29.82 in 0.5 mi SW 18.4 mph 31.1 mph 0.00 in Snow Snow
11:00 PM 17.1 °F 2.0 °F 3.9 °F 56% 29.73 in 0.8 mi SW 16.1 mph - 0.00 in Snow Light Snow
11:27 PM 19.0 °F 5.0 °F 6.1 °F 57% 29.70 in 0.5 mi SSW 15.0 mph - 0.00 in Snow Snow
11:40 PM 18.0 °F 1.7 °F 6.1 °F 60% 29.68 in 1.2 mi SW 19.6 mph 25.3 mph 0.01 in Snow Light Snow
11:43 PM 19.9 °F 5.7 °F 6.1 °F 55% 29.68 in 1.5 mi SW 16.1 mph 25.3 mph 0.01 in Snow Light Snow
11:53 PM 19.9 °F 5.7 °F 6.1 °F 55% 29.75 in 1.0 mi SW 16.1 mph - 0.01 in Snow Light Snow